TimeEST,TemperatureF,Dew PointF,Humidity,Sea Level PressureIn,VisibilityMPH,Wind Direction,Wind SpeedMPH,Gust SpeedMPH,PrecipitationIn,Events,Conditions,WindDirDegrees,DateUTC
12:15 AM,60.8,53.6,77,30.27,10.0,NE,3.5,-,N/A,,Clear,50,2012-11-30 05:15:00
12:35 AM,60.8,53.6,77,30.27,10.0,ENE,4.6,-,N/A,,Clear,60,2012-11-30 05:35:00
12:55 AM,60.8,53.6,77,30.26,10.0,NE,5.8,-,N/A,,Scattered Clouds,40,2012-11-30 05:55:00
1:15 AM,60.8,53.6,77,30.26,10.0,NE,5.8,-,N/A,,Scattered Clouds,40,2012-11-30 06:15:00
1:35 AM,59.0,53.6,82,30.25,10.0,NNE,3.5,-,N/A,,Scattered Clouds,20,2012-11-30 06:35:00
1:55 AM,59.0,53.6,82,30.25,10.0,NNE,3.5,-,N/A,,Clear,30,2012-11-30 06:55:00
2:15 AM,59.0,53.6,82,30.25,10.0,NNE,3.5,-,N/A,,Clear,30,2012-11-30 07:15:00
2:35 AM,57.2,53.6,88,30.25,10.0,NNE,3.5,-,N/A,,Clear,30,2012-11-30 07:35:00
2:55 AM,57.2,55.4,94,30.25,10.0,NNE,3.5,-,N/A,,Clear,20,2012-11-30 07:55:00
3:15 AM,57.2,57.2,100,30.25,10.0,North,3.5,-,N/A,,Clear,10,2012-11-30 08:15:00
3:35 AM,57.2,57.2,100,30.25,10.0,NNE,3.5,-,N/A,,Clear,30,2012-11-30 08:35:00
3:55 AM,57.2,-9999,N/A,30.25,10.0,NNE,4.6,-,N/A,,Clear,30,2012-11-30 08:55:00
4:15 AM,57.2,-9999,N/A,30.25,10.0,NNE,3.5,-,N/A,,Clear,30,2012-11-30 09:15:00
4:35 AM,57.2,-9999,N/A,30.25,10.0,NE,3.5,-,N/A,,Clear,40,2012-11-30 09:35:00
4:55 AM,57.2,-9999,N/A,30.25,10.0,NNE,3.5,-,N/A,,Clear,30,2012-11-30 09:55:00
5:15 AM,57.2,-9999,N/A,30.25,10.0,NNE,3.5,-,N/A,,Clear,30,2012-11-30 10:15:00
5:35 AM,57.2,-9999,N/A,30.25,10.0,NNE,3.5,-,N/A,,Clear,20,2012-11-30 10:35:00
5:55 AM,55.4,-9999,N/A,30.26,10.0,NE,4.6,-,N/A,,Clear,40,2012-11-30 10:55:00
6:15 AM,55.4,-9999,N/A,30.26,10.0,NNE,3.5,-,N/A,,Clear,30,2012-11-30 11:15:00
6:35 AM,55.4,-9999,N/A,30.26,10.0,NNE,4.6,-,N/A,,Clear,30,2012-11-30 11:35:00
6:55 AM,55.4,-9999,N/A,30.27,10.0,NNE,3.5,-,N/A,,Clear,30,2012-11-30 11:55:00
7:15 AM,55.4,-9999,N/A,30.27,7.0,NNE,4.6,-,N/A,,Clear,20,2012-11-30 12:15:00
7:35 AM,57.2,-9999,N/A,30.28,7.0,Calm,Calm,-,N/A,,Clear,0,2012-11-30 12:35:00
7:55 AM,57.2,-9999,N/A,30.28,7.0,NE,4.6,-,N/A,,Clear,40,2012-11-30 12:55:00
8:15 AM,59.0,-9999,N/A,30.28,10.0,ENE,3.5,-,N/A,,Clear,60,2012-11-30 13:15:00
8:35 AM,60.8,-9999,N/A,30.28,10.0,ENE,5.8,-,N/A,,Clear,70,2012-11-30 13:35:00
8:55 AM,62.6,60.8,94,30.29,10.0,ENE,6.9,-,N/A,,Clear,60,2012-11-30 13:55:00
9:15 AM,66.2,57.2,73,30.28,10.0,ENE,6.9,-,N/A,,Clear,70,2012-11-30 14:15:00
9:35 AM,68.0,57.2,68,30.29,10.0,ENE,6.9,-,N/A,,Clear,70,2012-11-30 14:35:00
9:55 AM,71.6,57.2,60,30.29,10.0,East,5.8,-,N/A,,Clear,90,2012-11-30 14:55:00
10:15 AM,73.4,55.4,53,30.29,10.0,East,6.9,-,N/A,,Clear,80,2012-11-30 15:15:00
10:35 AM,75.2,55.4,50,30.28,10.0,East,9.2,-,N/A,,Clear,90,2012-11-30 15:35:00
10:55 AM,75.2,53.6,47,30.27,10.0,East,15.0,21.9,N/A,,Clear,80,2012-11-30 15:55:00
11:15 AM,77.0,55.4,47,30.27,10.0,ESE,11.5,16.1,N/A,,Clear,110,2012-11-30 16:15:00
11:35 AM,77.0,53.6,44,30.26,10.0,East,11.5,16.1,N/A,,Clear,80,2012-11-30 16:35:00
11:55 AM,77.0,51.8,41,30.25,10.0,ESE,12.7,19.6,N/A,,Clear,110,2012-11-30 16:55:00
12:15 PM,78.8,51.8,39,30.25,10.0,ENE,12.7,-,N/A,,Clear,70,2012-11-30 17:15:00
12:35 PM,77.0,51.8,41,30.24,10.0,ENE,8.1,-,N/A,,Clear,70,2012-11-30 17:35:00
12:55 PM,77.0,51.8,41,30.22,10.0,East,10.4,-,N/A,,Clear,100,2012-11-30 17:55:00
1:15 PM,78.8,51.8,39,30.22,10.0,ESE,5.8,-,N/A,,Scattered Clouds,110,2012-11-30 18:15:00
1:35 PM,78.8,51.8,39,30.20,10.0,NE,12.7,16.1,N/A,,Scattered Clouds,40,2012-11-30 18:35:00
1:55 PM,80.6,51.8,37,30.20,10.0,ENE,8.1,-,N/A,,Scattered Clouds,70,2012-11-30 18:55:00
2:15 PM,80.6,51.8,37,30.19,10.0,NE,9.2,-,N/A,,Scattered Clouds,40,2012-11-30 19:15:00
2:35 PM,78.8,51.8,39,30.19,10.0,East,5.8,-,N/A,,Mostly Cloudy,80,2012-11-30 19:35:00
2:55 PM,77.0,51.8,41,30.19,10.0,East,4.6,-,N/A,,Scattered Clouds,100,2012-11-30 19:55:00
3:15 PM,77.0,51.8,41,30.19,10.0,East,9.2,-,N/A,,Clear,90,2012-11-30 20:15:00
3:35 PM,75.2,53.6,47,30.19,10.0,East,3.5,-,N/A,,Scattered Clouds,100,2012-11-30 20:35:00
3:55 PM,77.0,51.8,41,30.19,10.0,East,4.6,-,N/A,,Scattered Clouds,90,2012-11-30 20:55:00
4:15 PM,75.2,51.8,44,30.19,10.0,ESE,5.8,-,N/A,,Scattered Clouds,110,2012-11-30 21:15:00
4:35 PM,75.2,51.8,44,30.19,10.0,East,4.6,-,N/A,,Clear,100,2012-11-30 21:35:00
4:55 PM,73.4,53.6,50,30.20,10.0,East,3.5,-,N/A,,Clear,100,2012-11-30 21:55:00
5:15 PM,73.4,53.6,50,30.20,10.0,East,4.6,-,N/A,,Scattered Clouds,80,2012-11-30 22:15:00
5:35 PM,71.6,53.6,53,30.20,10.0,East,6.9,-,N/A,,Mostly Cloudy,90,2012-11-30 22:35:00
5:55 PM,73.4,53.6,50,30.21,10.0,East,4.6,-,N/A,,Overcast,90,2012-11-30 22:55:00
6:15 PM,71.6,53.6,53,30.21,10.0,East,6.9,-,N/A,,Overcast,90,2012-11-30 23:15:00
6:35 PM,71.6,53.6,53,30.22,10.0,ENE,5.8,-,N/A,,Overcast,70,2012-11-30 23:35:00
6:55 PM,71.6,53.6,53,30.22,10.0,East,5.8,-,N/A,,Overcast,80,2012-11-30 23:55:00
7:15 PM,69.8,53.6,56,30.22,10.0,East,5.8,-,N/A,,Mostly Cloudy,80,2012-12-01 00:15:00
7:35 PM,69.8,53.6,56,30.23,10.0,East,4.6,-,N/A,,Overcast,80,2012-12-01 00:35:00
7:55 PM,69.8,53.6,56,30.23,10.0,East,4.6,-,N/A,,Overcast,90,2012-12-01 00:55:00
8:15 PM,69.8,53.6,56,30.23,10.0,East,4.6,-,N/A,,Mostly Cloudy,90,2012-12-01 01:15:00
8:35 PM,68.0,53.6,60,30.23,10.0,East,6.9,-,N/A,,Scattered Clouds,80,2012-12-01 01:35:00
8:55 PM,68.0,53.6,60,30.23,10.0,East,5.8,-,N/A,,Clear,80,2012-12-01 01:55:00
9:15 PM,66.2,53.6,64,30.23,10.0,East,5.8,-,N/A,,Clear,80,2012-12-01 02:15:00
9:35 PM,66.2,53.6,64,30.23,10.0,ENE,3.5,-,N/A,,Clear,70,2012-12-01 02:35:00
9:55 PM,66.2,51.8,60,30.24,10.0,East,3.5,-,N/A,,Clear,80,2012-12-01 02:55:00
10:15 PM,64.4,51.8,64,30.24,10.0,Calm,Calm,-,N/A,,Clear,0,2012-12-01 03:15:00
10:35 PM,62.6,51.8,68,30.24,10.0,Calm,Calm,-,N/A,,Clear,0,2012-12-01 03:35:00
10:55 PM,62.6,51.8,68,30.24,10.0,Calm,Calm,-,N/A,,Clear,0,2012-12-01 03:55:00
11:15 PM,59.0,51.8,77,30.24,10.0,NE,3.5,-,N/A,,Clear,50,2012-12-01 04:15:00
11:35 PM,59.0,53.6,82,30.23,10.0,NE,3.5,-,N/A,,Clear,40,2012-12-01 04:35:00
11:55 PM,59.0,53.6,82,30.23,10.0,NE,3.5,-,N/A,,Clear,40,2012-12-01 04:55:00